カタログに戻る

STARLINK-31786

運用中通信VLEO
NORAD 59771·PAYLOAD·🇺🇸 United States

打ち上げ May 14, 2024 から Vandenberg Space Force Base

Loading…

次のパス (今後24時間)

TLE

最新Source: CelesTrak SupGP

元期: Sep 15, 2026, 03:32 UTC

1 59771C 24091U   26258.14770833 -.00054458  00000+0 -16089-2 0  2582
2 59771  53.1586 226.4213 0001356  88.9979  54.4881 15.34418370    11

AllMySatでSTARLINK-31786をリアルタイム追跡

Download on the App Store